User: anonymous   Login
Location: Unspecified
(0.0000°N, 0.0000°E)
Time: 01:09:56
(UTC+00:00)
Language:

NOSS 7 (H) - Orbit

View from above orbital plane
View from above orbital plane
View from above satellite
View from above satellite

Ground track
Ground track

The orbit data is extracted from the following two-line orbital elements,

1 16631U 86014H   23081.27614030  .00014841  00000-0  88320-3 0  9995
2 16631  63.2908  48.4127 0924368  89.0123 281.6542 13.57513282181597
Epoch (UTC): 22 March 2023 06:37:38
Eccentricity: 0.0924368
inclination: 63.2908°
perigee height: 358 km
apogee height: 1731 km
right ascension of ascending node: 48.4127°
argument of perigee: 89.0123°
revolutions per day: 13.57513282
mean anomaly at epoch: 281.6542°
orbit number at epoch: 18159

The dashed part of the orbit path shows where the satellite is in the earth's shadow,  

DLR